Skip Page Navigation
NASA JPL Caltech
NASA Logo - Jet Propulsion Laboratory + View the NASA Portal
+ Near-Earth Object (NEO) Program
Search JPL
JPL Home Earth Solar System Stars & Galaxies Technology
JPL Solar System Dynamics
BODIES ORBITS EPHEMERIDES TOOLS PHYSICAL DATA DISCOVERY FAQ SITE MAP
JPL Small-Body Database Browser
Search: [ help ]  
27707 (1986 QY3)
Classification: Main-belt Asteroid          SPK-ID: 2027707
Ephemeris | Orbit Diagram | Orbital Elements | Physical Parameters | Discovery Circumstances | Close-Approach Data ]

[ show orbit diagram ]
Orbital Elements at Epoch 2457600.5 (2016-Jul-31.0) TDB
Reference: JPL 11 (heliocentric ecliptic J2000)
 Element Value Uncertainty (1-sigma)   Units 
e .1867661451939049 7.1818e-08  
a 2.415233427140917 2.2649e-08 au
q 1.964149590210344 1.7338e-07 au
i 3.643375139076301 6.9658e-06 deg
node 120.3452257889497 0.0001288 deg
peri 211.6650941061123 0.00013211 deg
M 352.5005269029659 4.1011e-05 deg
tp 2457629.060469585003
(2016-Aug-28.56046959)
0.00015652 JED
period 1370.99885786208
3.75
1.9285e-05
5.28e-08
d
yr
n .2625822756419943 3.6936e-09 deg/d
Q 2.86631726407149 2.6879e-08 au
  Orbit Determination Parameters
   # obs. used (total)      546  
   data-arc span      10543 days (28.87 yr)  
   first obs. used      1986-08-31  
   last obs. used      2015-07-13  
   planetary ephem.      DE431  
   SB-pert. ephem.      SB431-BIG16  
   condition code      0  
   fit RMS      .58135  
   data source      ORB  
   producer      Otto Matic  
   solution date      2015-Sep-02 15:11:19  

Additional Information
 Earth MOID = .953895 au 
 Jupiter MOID = 2.4802 au 
 T_jup = 3.490 
[ show covariance matrix ]

Ephemeris | Orbit Diagram | Orbital Elements | Physical Parameters | Discovery Circumstances | Close-Approach Data ]

Physical Parameter Table
Parameter Symbol Value Units Sigma Reference Notes
absolute magnitude H 15.5 mag n/a MPO344518  

27707 (1986 QY3)          Discovered 1986-Aug-31 by Debehogne, H. at La Silla
Reference: 20010902/Numbers.arcLast Updated: 2004-04-19

[ show close-approach data ]
Alternate Designations
 1986 QY3 = 1997 MJ4 
Ephemeris | Orbit Diagram | Orbital Elements | Physical Parameters | Discovery Circumstances | Close-Approach Data ]
ABOUT SSD CREDITS/AWARDS PRIVACY/COPYRIGHT GLOSSARY LINKS
FirstGov 2016-May-02 01:22 UT
(server date/time)  
NASA Home Page
Site Manager:   Ryan S. Park
Webmaster  Alan B. Chamberlin